Location: San Vito
(41.8833°N, 12.9833°E)
Time: 10:41:36
(UTC+00:00)

SL-08 R/B - Pass Details

Date: 17 November 2019
Orbit: 944 x 1008 km, 82.9° (Epoch: 11 December)

Event Time Altitude Azimuth Distance (km) Brightness Sun altitude
Rises 04:44:37 0° 189° (S) 3,628 7.5 -14.0°
Reaches altitude 10° 04:47:07 10° 190° (S) 2,678 6.8 -13.5°
Maximum altitude 04:53:14 80° 278° (W) 968 4.4 -12.4°
Drops below altitude 10° 04:59:21 10° 5° (N) 2,672 6.7 -11.3°
Sets 05:01:51 0° 7° (N) 3,620 7.4 -10.9°
